This demonstration page uses our WeatherBlox Daily Observations layout. Learn more.

Left ArrowRight Arrow

40.92945, -100.16068

Hourly Observations for April 1, 2016

Temp ( °F °C ) Dew Point ( °F °C ) Humidity (%) Winds ( mph kmh ) Pressure ( in mb ) Visibility ( mi km ) Precip ( " mm )
12:15 am 00:15 Clear 30 -1.3 24 -4.3 80 80 WNW 12 19 30.06 1018 10 16 N/A
12:35 am 00:35 Clear 30 -1 25 -4 80 80 WNW 12 19 30.06 1018 10 16 N/A
12:55 am 00:55 Clear 31 -0.6 25 -3.9 79 79 NW 13 20 30.06 1018 10 16 N/A
1:15 am 01:15 Clear 30 -1 24 -4.2 79 79 NW 12 19 30.09 1019 10 16 N/A
1:35 am 01:35 Clear 28 -2 24 -4.6 83 83 WNW 8 13 30.09 1019 10 16 N/A
1:55 am 01:55 Clear 29 -1.7 24 -4.3 83 83 WNW 12 19 30.09 1019 10 16 N/A
2:15 am 02:15 Clear 30 -1.3 25 -4 82 82 WNW 12 19 30.09 1019 10 16 N/A
2:35 am 02:35 Clear 29 -1.5 25 -4.1 83 83 WNW 13 20 30.09 1019 10 16 N/A
2:55 am 02:55 Clear 30 -1.1 25 -3.8 82 82 WNW 14 22 30.09 1019 10 16 N/A
3:15 am 03:15 Clear 30 -0.9 26 -3.5 83 83 WNW 15 24 30.09 1019 10 16 N/A
3:35 am 03:35 Partly Cloudy 31 -0.3 26 -3.1 82 82 WNW 13 20 30.09 1019 10 16 N/A
3:55 am 03:55 Partly Cloudy 31 -0.3 27 -3 82 82 WNW 14 22 30.09 1019 10 16 N/A
4:15 am 04:15 Clear 32 -0.2 27 -3 82 82 WNW 12 19 30.09 1019 10 16 N/A
4:35 am 04:35 Clear 31 -0.5 27 -3 83 83 WNW 14 22 30.09 1019 10 16 N/A
4:55 am 04:55 Clear 30 -1.1 26 -3.3 85 85 WNW 10 17 30.09 1019 10 16 N/A
5:15 am 05:15 Clear 30 -1.1 26 -3.1 86 86 WNW 12 19 30.12 1020 10 16 N/A
5:55 am 05:55 Clear 30 -1 26 -3.1 86 86 WNW 9 15 30.12 1020 10 16 N/A
6:15 am 06:15 Clear 29 -1.7 26 -3.6 87 87 WNW 9 15 30.12 1020 10 16 N/A
6:35 am 06:35 Clear 28 -2.3 25 -4.1 88 88 WNW 8 13 30.15 1021 10 16 N/A
6:55 am 06:55 Mostly Cloudy 28 -2.1 25 -3.8 88 88 WNW 9 15 30.18 1022 10 16 N/A
7:15 am 07:15 Cloudy 30 -1.1 27 -3 87 87 NW 8 13 30.15 1021 10 16 N/A
7:35 am 07:35 Cloudy 30 -1 27 -3 86 86 NW 7 11 30.15 1021 10 16 N/A
7:55 am 07:55 Cloudy 31 -0.8 27 -2.7 87 87 NW 7 11 30.15 1021 10 16 N/A
8:15 am 08:15 Cloudy 32 undefined 28 -2 87 87 WNW 7 11 30.15 1021 10 16 N/A
8:35 am 08:35 Mostly Cloudy 34 1 29 -1.6 83 83 NW 12 19 30.12 1020 10 16 N/A
8:55 am 08:55 Partly Cloudy 35 1.8 29 -1.4 80 80 WNW 13 20 30.12 1020 10 16 N/A
9:15 am 09:15 Partly Cloudy 37 2.5 27 -2.7 69 69 NW 16 26 30.12 1020 10 16 N/A
9:35 am 09:35 Mostly Cloudy 38 3.3 24 -4.3 58 58 NW 25 41 30.12 1020 10 16 N/A
9:55 am 09:55 Partly Cloudy 39 4.1 24 -4.7 53 53 NNW 22 35 30.09 1019 10 16 N/A
10:15 am 10:15 Mostly Cloudy 40 4.4 22 -5.3 50 50 NNW 21 33 30.12 1020 10 16 N/A
10:35 am 10:35 Cloudy 38 3.6 21 -6.2 49 49 NNW 18 30 30.15 1021 10 16 N/A
10:55 am 10:55 Cloudy 39 3.9 21 -6 49 49 NNW 24 39 30.15 1021 10 16 N/A
11:15 am 11:15 Cloudy 39 4.1 20 -6.5 46 46 NW 23 37 30.18 1022 10 16 N/A
11:35 am 11:35 Cloudy 40 4.6 20 -6.6 44 44 NNW 21 33 30.12 1020 10 16 N/A
11:55 am 11:55 Cloudy 41 4.8 19 -7.5 41 41 NNW 25 41 30.15 1021 10 16 N/A
12:15 pm 12:15 Mostly Cloudy 42 5.6 19 -7.4 39 39 NW 30 48 30.15 1021 10 16 N/A
12:35 pm 12:35 Cloudy 41 5.1 17 -8.1 38 38 NNW 25 41 30.15 1021 10 16 N/A
12:55 pm 12:55 Mostly Cloudy 42 5.6 16 -8.8 35 35 NNW 29 46 30.15 1021 10 16 N/A
1:15 pm 13:15 Mostly Cloudy 43 6.2 15 -9.2 33 33 NNW 25 41 30.15 1021 10 16 N/A
1:35 pm 13:35 Mostly Cloudy 44 6.8 17 -8.2 34 34 NNW 24 39 30.15 1021 10 16 N/A
1:55 pm 13:55 Partly Cloudy 44 6.5 16 -8.8 33 33 NNW 26 43 30.15 1021 10 16 N/A
2:15 pm 14:15 Mostly Cloudy 42 5.8 17 -8.2 36 36 N 20 31 30.15 1021 10 16 N/A
2:35 pm 14:35 Mostly Cloudy 44 6.8 17 -8.3 33 33 NNW 30 48 30.15 1021 10 16 N/A
2:55 pm 14:55 Partly Cloudy 44 6.5 16 -8.9 33 33 NNW 28 44 30.15 1021 10 16 N/A
3:15 pm 15:15 Partly Cloudy 43 6.2 16 -8.9 33 33 N 22 35 30.15 1021 10 16 N/A
3:35 pm 15:35 Sunny 44 6.5 16 -9.1 32 32 NNW 22 35 30.15 1021 10 16 N/A
3:55 pm 15:55 Sunny 43 6.3 16 -9.1 33 33 NNW 16 26 30.15 1021 10 16 N/A
4:15 pm 16:15 Sunny 44 6.7 16 -8.9 32 32 NNW 15 24 30.15 1021 10 16 N/A
4:35 pm 16:35 Sunny 45 7 15 -9.2 31 31 NNW 20 31 30.15 1021 10 16 N/A
4:55 pm 16:55 Sunny 44 6.9 15 -9.6 30 30 NNW 16 26 30.15 1021 10 16 N/A
5:15 pm 17:15 Sunny 45 7.1 15 -9.3 30 30 NNW 25 41 30.15 1021 10 16 N/A
5:35 pm 17:35 Sunny 44 6.9 14 -10.1 29 29 NNW 15 24 30.15 1021 10 16 N/A
5:55 pm 17:55 Sunny 45 7.1 14 -9.8 29 29 NNW 14 22 30.15 1021 10 16 N/A
6:15 pm 18:15 Sunny 45 7 14 -9.9 29 29 NW 18 30 30.15 1021 10 16 N/A
6:35 pm 18:35 Sunny 44 6.8 14 -10.1 29 29 NNW 18 30 30.15 1021 10 16 N/A
6:55 pm 18:55 Partly Cloudy 45 7.4 25 -3.7 46 46 NNW 26 43 29.85 1011 10 16 N/A
7:15 pm 19:15 Sunny 43 6.3 14 -10.1 30 30 NNW 13 20 30.12 1020 10 16 N/A
7:35 pm 19:35 Sunny 42 5.6 14 -9.8 32 32 NNW 13 20 30.12 1020 10 16 N/A
7:55 pm 19:55 Sunny 40 4.5 14 -10 34 34 NNW 8 13 30.12 1020 10 16 N/A
8:15 pm 20:15 Clear 38 3.1 11 -11.5 34 34 NNW 6 9 30.15 1021 10 16 N/A
8:35 pm 20:35 Clear 37 2.8 12 -11.2 35 35 N N/A 30.15 1021 10 16 N/A
8:55 pm 20:55 Clear 34 1 12 -11 41 41 WSW 3 6 30.18 1022 10 16 N/A
9:15 pm 21:15 Clear 34 1.2 13 -10.6 41 41 W 5 7 30.18 1022 10 16 N/A
9:35 pm 21:35 Clear 31 -0.8 13 -10.7 47 47 SW 8 13 30.21 1023 10 16 N/A
9:55 pm 21:55 Clear 30 -1.3 13 -10.4 50 50 WSW 7 11 30.18 1022 10 16 N/A
10:15 pm 22:15 Clear 29 -1.4 13 -10.5 50 50 WSW 6 9 30.18 1022 10 16 N/A
10:35 pm 22:35 Clear 29 -1.5 14 -9.9 53 53 WSW 6 9 30.18 1022 10 16 N/A
10:55 pm 22:55 Clear 29 -1.8 13 -10.5 52 52 WSW 7 11 30.21 1023 10 16 N/A
11:15 pm 23:15 Clear 28 -2.1 13 -10.5 53 53 WSW 8 13 30.18 1022 10 16 N/A
11:35 pm 23:35 Clear 28 -2.2 13 -10.7 53 53 WSW 6 9 30.18 1022 10 16 N/A
11:55 pm 23:55 Clear 27 -2.6 13 -10.3 56 56 WSW 7 11 30.18 1022 10 16 N/A

Powered by AerisWeather